When you browse on this site, cookies collect data to enhance your experience and personalize the content and advertising you see.
Visit our Privacy Policy to learn more. By continuing to use the site, you agree to this use of cookies and data.
  • In Österreich
  • Länderverzeichnis
  • Für 7 Tage
  • Wassertemperatur
  • Satellitenkarten
  • Wetterkarte
  • News
  • Widgets
  • user-avatar
    Anmelden

    Stündliche Wetter Stuttgart

    Heute, 21 Januar, Montag

    Zeit Temperatur Niederschläge Wind Luftdruck Luftfeuchtigkeit
    00:00 -4°C° 0 mm 0 m/S 737 mmHg 79%
    01:00 -3°C° 0 mm 1 m/S 737 mmHg 80%
    02:00 -3°C° 0 mm 1 m/S 737 mmHg 80%
    03:00 -4°C° 0 mm 0 m/S 737 mmHg 81%
    04:00 -4°C° 0 mm 0 m/S 737 mmHg 81%
    05:00 -5°C° 0 mm 0 m/S 738 mmHg 82%
    06:00 -5°C° 0 mm 0 m/S 738 mmHg 82%
    07:00 -5°C° 0 mm 0 m/S 738 mmHg 83%
    08:00 -4°C° 0 mm 0 m/S 738 mmHg 80%
    09:00 -4°C° 0 mm 0 m/S 738 mmHg 76%
    10:00 -3°C° 0 mm 0 m/S 739 mmHg 73%
    11:00 -2°C° 0 mm 0 m/S 738 mmHg 69%
    12:00 -1°C° 0 mm 0 m/S 738 mmHg 65%
    13:00 0°C° 0 mm 0 m/S 738 mmHg 61%
    14:00 +1°C° 0 mm 1 m/S 738 mmHg 63%
    15:00 0°C° 0 mm 1 m/S 738 mmHg 64%
    16:00 0°C° 0 mm 1 m/S 738 mmHg 66%
    17:00 -2°C° 0 mm 0 m/S 738 mmHg 70%
    18:00 -3°C° 0 mm 0 m/S 737 mmHg 73%
    19:00 -4°C° 0 mm 0 m/S 737 mmHg 76%
    20:00 -4°C° 0 mm 0 m/S 737 mmHg 77%
    21:00 -4°C° 0 mm 0 m/S 737 mmHg 79%
    22:00 -4°C° 0 mm 0 m/S 737 mmHg 80%
    23:00 -3°C° 0 mm 1 m/S 737 mmHg 81%

    Morgen, 22 Januar, Dienstag

    Zeit Temperatur Niederschläge Wind Luftdruck Luftfeuchtigkeit
    00:00 -3°C° 0 mm 1 m/S 737 mmHg 83%
    01:00 -3°C° 0 mm 1 m/S 737 mmHg 84%
    02:00 -3°C° 0 mm 1 m/S 736 mmHg 85%
    03:00 -3°C° 0 mm 1 m/S 735 mmHg 87%
    04:00 -3°C° 0 mm 1 m/S 735 mmHg 88%
    05:00 -3°C° 0 mm 1 m/S 734 mmHg 88%
    06:00 -3°C° 0 mm 1 m/S 734 mmHg 89%
    07:00 -3°C° 0 mm 1 m/S 733 mmHg 89%
    08:00 -3°C° 0 mm 1 m/S 733 mmHg 86%
    09:00 -4°C° 0 mm 2 m/S 732 mmHg 83%
    10:00 -3°C° 0 mm 2 m/S 732 mmHg 79%
    11:00 -2°C° 0 mm 2 m/S 731 mmHg 76%
    12:00 -1°C° 0 mm 2 m/S 730 mmHg 72%
    13:00 +2°C° 0 mm 2 m/S 729 mmHg 68%
    14:00 +1°C° 0 mm 2 m/S 728 mmHg 71%
    15:00 +1°C° 0 mm 2 m/S 727 mmHg 74%
    16:00 +1°C° 0 mm 2 m/S 726 mmHg 77%
    17:00 -1°C° 0 mm 2 m/S 726 mmHg 80%
    18:00 -2°C° 0 mm 2 m/S 725 mmHg 83%
    19:00 -1°C° 0 mm 1 m/S 725 mmHg 86%
    20:00 -3°C° 0 mm 2 m/S 724 mmHg 84%
    21:00 -4°C° 0 mm 2 m/S 724 mmHg 82%
    22:00 -4°C° 0 mm 2 m/S 724 mmHg 80%
    23:00 -4°C° 0 mm 2 m/S 724 mmHg 78%

    übermorgen, 23 Januar, Mittwoch

    Zeit Temperatur Niederschläge Wind Luftdruck Luftfeuchtigkeit
    00:00 -2°C° 0 mm 1 m/S 723 mmHg 75%
    01:00 -2°C° 0 mm 1 m/S 723 mmHg 73%
    02:00 -2°C° 0 mm 1 m/S 723 mmHg 74%
    03:00 -1°C° 0 mm 1 m/S 723 mmHg 74%
    04:00 -1°C° 0 mm 1 m/S 723 mmHg 75%
    05:00 -1°C° 0 mm 1 m/S 723 mmHg 77%
    06:00 -1°C° 0 mm 1 m/S 723 mmHg 80%
    07:00 -2°C° 0 mm 0 m/S 723 mmHg 82%
    08:00 -2°C° 0 mm 0 m/S 723 mmHg 82%
    09:00 -1°C° 0 mm 0 m/S 723 mmHg 81%
    10:00 -1°C° 0 mm 0 m/S 724 mmHg 80%
    11:00 0°C° 0 mm 0 m/S 723 mmHg 80%
    12:00 +1°C° 0 mm 1 m/S 723 mmHg 79%
    13:00 +2°C° 0 mm 1 m/S 723 mmHg 78%
    14:00 +1°C° 0 mm 1 m/S 724 mmHg 79%
    15:00 +1°C° 0 mm 1 m/S 724 mmHg 79%
    16:00 +1°C° 0 mm 1 m/S 724 mmHg 80%
    17:00 0°C° 0 mm 1 m/S 725 mmHg 82%
    18:00 -1°C° 0 mm 1 m/S 725 mmHg 84%
    19:00 -2°C° 0 mm 1 m/S 726 mmHg 87%
    20:00 -2°C° 0 mm 1 m/S 727 mmHg 86%
    21:00 -2°C° 0 mm 1 m/S 727 mmHg 86%
    22:00 -2°C° 0 mm 1 m/S 728 mmHg 86%
    23:00 -4°C° 0 mm 0 m/S 728 mmHg 85%

    24 Januar, Donnerstag

    Zeit Temperatur Niederschläge Wind Luftdruck Luftfeuchtigkeit
    00:00 -4°C° 0 mm 0 m/S 729 mmHg 85%
    01:00 -4°C° 0 mm 0 m/S 729 mmHg 85%
    02:00 -4°C° 0 mm 0 m/S 730 mmHg 85%
    03:00 -4°C° 0 mm 0 m/S 730 mmHg 85%
    04:00 -4°C° 0 mm 0 m/S 730 mmHg 86%
    05:00 -4°C° 0 mm 0 m/S 731 mmHg 86%
    06:00 -3°C° 0 mm 1 m/S 731 mmHg 87%
    07:00 -4°C° 0 mm 1 m/S 732 mmHg 87%
    08:00 -3°C° 0 mm 1 m/S 732 mmHg 84%
    09:00 -2°C° 0 mm 1 m/S 733 mmHg 82%
    10:00 -1°C° 0 mm 1 m/S 733 mmHg 79%
    11:00 -1°C° 0 mm 1 m/S 733 mmHg 75%
    12:00 0°C° 0 mm 1 m/S 733 mmHg 71%
    13:00 -1°C° 0 mm 2 m/S 733 mmHg 68%
    14:00 +1°C° 0 mm 1 m/S 734 mmHg 71%
    15:00 +1°C° 0 mm 1 m/S 734 mmHg 74%
    16:00 +1°C° 0 mm 1 m/S 734 mmHg 76%
    17:00 0°C° 0 mm 1 m/S 734 mmHg 79%
    18:00 0°C° 0 mm 1 m/S 735 mmHg 82%
    19:00 0°C° 0 mm 1 m/S 735 mmHg 85%
    20:00 0°C° 0 mm 1 m/S 736 mmHg 86%
    21:00 -1°C° 0 mm 0 m/S 736 mmHg 86%
    22:00 -1°C° 0 mm 0 m/S 736 mmHg 87%
    23:00 0°C° 0 mm 1 m/S 736 mmHg 88%

    25 Januar, Freitag

    Zeit Temperatur Niederschläge Wind Luftdruck Luftfeuchtigkeit
    00:00 -1°C° 0 mm 1 m/S 736 mmHg 88%
    01:00 -1°C° 0 mm 1 m/S 736 mmHg 89%
    02:00 -1°C° 0 mm 1 m/S 736 mmHg 90%
    03:00 -2°C° 0 mm 1 m/S 736 mmHg 90%
    04:00 -2°C° 0 mm 1 m/S 736 mmHg 91%
    05:00 -2°C° 0 mm 1 m/S 736 mmHg 90%
    06:00 -2°C° 0 mm 1 m/S 737 mmHg 89%
    07:00 -2°C° 0 mm 1 m/S 737 mmHg 88%
    08:00 -2°C° 0 mm 1 m/S 737 mmHg 84%
    09:00 -1°C° 0 mm 1 m/S 737 mmHg 80%
    10:00 0°C° 0 mm 1 m/S 737 mmHg 76%
    11:00 +1°C° 0 mm 1 m/S 737 mmHg 71%
    12:00 +2°C° 0 mm 1 m/S 737 mmHg 66%
    13:00 +3°C° 0 mm 1 m/S 737 mmHg 62%
    14:00 +3°C° 0 mm 1 m/S 737 mmHg 65%
    15:00 +1°C° 0 mm 0 m/S 736 mmHg 67%
    16:00 +1°C° 0 mm 0 m/S 736 mmHg 70%
    17:00 +1°C° 0 mm 0 m/S 737 mmHg 74%
    18:00 +1°C° 0 mm 1 m/S 737 mmHg 77%
    19:00 +1°C° 0 mm 1 m/S 737 mmHg 80%
    20:00 +1°C° 0 mm 1 m/S 737 mmHg 82%
    21:00 +1°C° 0 mm 1 m/S 737 mmHg 83%
    22:00 +1°C° 0 mm 1 m/S 737 mmHg 85%
    23:00 +1°C° 0 mm 1 m/S 737 mmHg 85%

    26 Januar, Samstag

    Zeit Temperatur Niederschläge Wind Luftdruck Luftfeuchtigkeit
    00:00 +1°C° 0 mm 1 m/S 736 mmHg 85%
    01:00 +1°C° 0 mm 1 m/S 736 mmHg 85%
    02:00 +1°C° 0 mm 1 m/S 736 mmHg 85%
    03:00 +2°C° 0 mm 1 m/S 735 mmHg 85%
    04:00 +2°C° 0 mm 1 m/S 735 mmHg 85%
    05:00 +2°C° 0 mm 1 m/S 735 mmHg 86%
    06:00 +2°C° 0 mm 1 m/S 734 mmHg 87%
    07:00 +2°C° 0 mm 1 m/S 734 mmHg 88%
    08:00 +3°C° 0 mm 1 m/S 734 mmHg 88%
    09:00 +3°C° 0 mm 1 m/S 733 mmHg 88%
    10:00 +3°C° 0 mm 2 m/S 733 mmHg 87%
    11:00 +4°C° 0 mm 2 m/S 732 mmHg 86%
    12:00 +4°C° 0 mm 2 m/S 732 mmHg 85%
    13:00 +5°C° 0 mm 2 m/S 731 mmHg 84%
    14:00 +5°C° 0.1 mm 2 m/S 730 mmHg 86%
    15:00 +5°C° 0.1 mm 2 m/S 730 mmHg 89%
    16:00 +4°C° 0.1 mm 2 m/S 729 mmHg 91%
    17:00 +4°C° 0 mm 2 m/S 728 mmHg 91%
    18:00 +3°C° 0 mm 2 m/S 728 mmHg 91%
    19:00 +2°C° 0 mm 3 m/S 727 mmHg 91%
    20:00 +2°C° 0 mm 3 m/S 726 mmHg 89%
    21:00 +2°C° 0 mm 3 m/S 725 mmHg 86%
    22:00 +1°C° 0 mm 4 m/S 724 mmHg 84%
    23:00 +1°C° 0.3 mm 4 m/S 724 mmHg 83%
    Mehr zeigen